LFMHLSZA

Guest
Details From LFMH - Saint Etienne Boutheon
To LSZA - Lugano
Flight Number -
Tags generated
Created
Modified
Stats Distance 195 nm / 362 km
Max Altitude 19,700 ft / 6,005 m
Waypoints 3
Social Downloads 9
Likes 0
Share VATSIM

Download

Looking for another format? Having issues loading an existing format? Contact us
Advertisement - Login to hide

Notes

Basic altitude profile: - Ascent Rate: 2500ft/min - Ascent Speed: 250kts - Cruise Altitude: 35000ft - Cruise Speed: 420kts - Descent Rate: 1500ft/min - Descent Speed: 250kts

Route

LFMH MOBLO LSZA

ID Type Via Altitude Latitude Longitude Leg Dist Tot Dist Heading (true) Name
O LFMH APT - 0 ft / 0 m 45.54087˚ 4.29645˚ - 0 nm - Saint Etienne Boutheon
MOBLO FIX - 19,700 ft / 6,005 m 45.80972˚ 6.72278˚ 103 nm 103 nm 80° / 82° -
O LSZA APT - 0 ft / 0 m 46.00427˚ 8.91058˚ 92 nm 195 nm 82° / 84° Lugano

Altitude Profile

Advertisement - Login to hide

Weather


0- 5 10 15 20 25 30 35+ Temperature / ° C

Clouds and Precipitation
Forecast for 2018-05-23 18:00 UTC. Updated 2 hours ago

Ground ~20,000 ft ~40,000 ft Winds

LFMH

Details ICAO LFMH (EBU)
Name Saint Etienne Boutheon
Region France
Timezone Europe/Paris (UTC+2.0)
Stats Elevation 1,325 ft / 404 m (AMSL)
Location 45.540868° 4.296450°
Runways 1
Magnetic Variation 1.340° E

METAR

LFMH 231900Z AUTO 10002KT CAVOK 17/11 Q1017 TEMPO SHRA SCT030TCU FEW050CB

Decode

TAF

TAF LFMH 231400Z 2315/2415 VRB05KT 9999 SCT030 TEMPO 2315/2321 SHRA SCT030TCU FEW050CB PROB40 TEMPO 2315/2318 VRB15G25KT TSRA BKN040CB BECMG 2403/2406 CAVOK BECMG 2412/2415 FEW050TCU

Decode

Departure Runways

ID Width Length Bearing (true) Bearing (mag) Surface Threshold Offset Overrun Length
18 148 ft / 45 m 7,568 ft / 2,307 m 174.93° 173.59° Asphalt 984 ft / 300 m 0 ft / 0 m
36 148 ft / 45 m 7,568 ft / 2,307 m 354.93° 353.59° Asphalt 558 ft / 170 m 0 ft / 0 m

LSZA

Details ICAO LSZA (LUG)
Name Lugano
Region Switzerland
Timezone Europe/Zurich (UTC+2.0)
Stats Elevation 915 ft / 279 m (AMSL)
Location 46.004275° 8.910579°
Runways 1
Magnetic Variation 2.475° E

METAR

LSZA 231850Z VRB01KT 9999 SHRA SCT060 BKN100 19/14 Q1017 NOSIG

Decode

TAF

Not found

Destination Runways

ID Width Length Bearing (true) Bearing (mag) Surface Threshold Offset Overrun Length
01 98 ft / 30 m 4,430 ft / 1,350 m 18.79° 16.31° Asphalt 361 ft / 110 m 0 ft / 0 m
19 98 ft / 30 m 4,430 ft / 1,350 m 198.79° 196.31° Asphalt 673 ft / 205 m 0 ft / 0 m

Approach Navaids

Runway Type Ident Frequency Range Bearing (true) Bearing (mag) Slope Elevation
01 Localiser ILU 111.50 MHz 18 nm / 33 km 18.79° 16.31° - 928 ft / 283 m (AMSL)
01 Glidescope ILU 111.50 MHz 10 nm / 19 km 19.99° 17.51° 6.00° 928 ft / 283 m (AMSL)
01 DME ILU 111.50 MHz 18 nm / 33 km - - - 928 ft / 283 m (AMSL)